Lid_Strength_Index
2 2 2 2 2 2 2 2 2 2 2 2 1 1 1 2 2 3 6 3 1 -3 -1 0 1 2 2 4 4 3 9 13 12 11 10 7 8 4 3 5 4 4 4 3 2
2 2 2 2 2 2 2 2 2 2 2 2 1 2 1 1 3 5 -0 -5 -5 -3 1 2 3 3 5 4 5 6 10 11 8 7 8 7 7 6 6 6 6 6 3 2 2
2 2 3 3 2 2 2 2 2 2 2 2 2 2 1 1 3 3 -3 -5 -4 -2 1 1 2 3 5 5 6 6 10 7 6 6 5 7 6 5 7 8 6 6 5 3 3
3 3 3 4 3 3 2 3 2 2 3 2 2 2 1 2 7 1 -3 -2 -3 0 1 2 3 5 6 7 5 8 6 6 6 5 6 7 5 6 6 6 4 4 3 3 3
3 3 4 4 3 3 3 3 3 3 3 3 2 1 1 4 4 -0 -3 -2 1 1 2 3 4 5 7 6 6 7 6 6 5 5 6 5 6 6 6 4 3 3 3 4 4
3 3 4 4 3 3 3 3 3 3 3 3 2 2 3 5 -0 1 1 2 0 1 2 2 4 3 5 6 6 5 6 6 6 6 6 7 6 6 7 4 4 4 4 3 4
3 4 4 4 4 3 4 4 4 3 3 3 2 1 2 4 0 -0 0 1 0 1 2 1 2 3 4 6 4 5 8 7 7 6 7 6 9 8 6 5 5 4 4 3 3
3 4 4 4 4 4 4 4 4 3 3 3 2 1 4 0 -0 0 0 1 0 0 1 1 1 3 4 4 5 7 8 11 7 7 6 7 12 8 6 6 6 5 4 4 3
3 4 4 5 5 4 4 4 4 3 3 2 2 2 5 1 2 0 0 2 1 1 1 1 2 4 4 7 9 8 11 10 9 6 7 8 10 7 6 6 6 5 4 4 4
4 4 5 5 5 5 5 5 3 4 3 2 2 4 3 4 3 1 0 1 2 2 3 3 4 6 6 8 13 11 9 8 9 8 7 8 9 7 5 6 6 5 5 4 4
4 4 4 5 5 5 5 3 4 5 3 5 5 4 4 2 2 2 1 2 2 3 6 4 7 9 8 7 6 7 8 8 7 6 8 9 9 8 6 6 6 6 5 5 4
4 4 4 5 5 5 5 4 3 3 5 4 4 5 3 3 4 3 1 4 4 6 5 6 9 6 6 6 6 7 8 8 7 7 8 9 10 8 6 6 6 6 5 5 4
4 4 5 5 5 6 4 3 1 2 5 4 4 5 4 3 4 4 2 3 5 6 6 7 7 5 6 6 7 7 8 8 8 7 8 9 12 11 7 6 5 5 5 4 4
4 5 5 5 7 3 4 1 1 2 7 6 6 5 4 3 5 2 2 4 5 6 6 6 5 6 6 7 6 9 6 7 7 8 13 9 19 13 10 9 6 6 5 5 4
5 5 5 6 4 3 2 1 1 3 13 7 5 2 4 5 4 4 2 3 6 6 6 7 6 6 7 7 6 7 6 6 7 8 9 12 15 14 10 11 8 7 6 5 4
5 6 6 5 4 1 1 2 3 8 13 7 5 6 6 5 5 4 4 3 4 5 5 6 4 5 6 5 5 5 6 7 7 8 18 14 12 16 13 11 9 7 5 5 4
6 6 6 1 2 0 1 3 8 11 6 7 6 6 6 6 6 5 6 6 7 9 8 7 6 5 5 6 5 6 8 12 13 15 15 11 11 11 9 8 8 7 6 5 4
7 7 5 2 0 1 2 6 11 7 7 5 5 6 7 6 6 6 6 7 6 7 8 9 10 7 6 6 7 7 8 11 15 14 12 9 11 10 6 5 5 5 5 4 4
7 3 2 0 0 1 4 8 8 7 6 7 6 7 7 6 6 6 6 7 6 6 8 9 9 6 5 5 5 7 9 7 9 9 11 10 9 6 5 6 5 5 5 5 4
2 1 1 0 0 2 6 9 6 5 6 6 8 7 8 7 7 7 7 6 6 5 5 7 9 6 6 6 5 6 6 9 9 14 15 11 10 10 10 11 6 5 5 4 4
3 4 1 0 1 4 7 7 5 5 5 6 7 7 7 7 7 7 7 6 5 5 5 6 7 8 6 7 8 7 8 8 8 9 12 13 13 6 8 8 6 5 4 4 4
2 6 2 0 5 5 6 5 8 5 4 5 5 6 7 6 7 7 7 6 5 5 6 5 7 9 8 6 5 6 7 7 10 11 9 10 11 5 6 5 4 5 4 4 3
4 3 1 1 7 6 5 5 5 5 5 5 6 5 5 6 8 7 6 4 5 5 6 5 8 10 9 7 6 7 7 7 7 7 10 11 10 5 5 5 4 4 5 4 4
4 6 4 3 3 5 6 6 6 4 5 5 5 5 6 7 6 7 7 5 4 5 4 4 7 9 11 9 8 8 8 7 8 10 10 9 8 7 6 6 5 5 5 4 4
3 5 4 7 6 5 5 6 7 7 5 5 6 6 6 8 8 8 6 6 5 5 5 6 9 8 7 7 7 8 8 7 9 8 10 9 9 7 7 6 5 4 4 5 4
5 5 4 4 4 5 7 6 7 6 6 7 7 6 6 8 7 8 7 7 7 6 6 6 9 8 9 7 7 8 7 7 7 7 7 7 8 5 5 5 5 5 5 6 5
4 2 4 6 5 6 7 6 6 5 5 5 6 6 7 6 5 5 5 5 5 7 7 7 9 10 12 9 9 11 8 7 7 6 7 9 7 5 5 6 5 5 5 6 6